Time,TemperatureF,DewpointF,PressureIn,WindDirection,WindDirectionDegrees,WindSpeedMPH,WindSpeedGustMPH,Humidity,HourlyPrecipIn,Conditions,Clouds,dailyrainin,SoftwareType,DateUTC
2013-01-11 00:03:00,70.0,66.0,30.24,ENE,65,4.0,9.0,86,0.00,,,0.00,,2013-01-11 05:03:00,
2013-01-11 00:13:00,70.0,66.0,30.24,ENE,65,4.0,9.0,86,0.00,,,0.00,,2013-01-11 05:13:00,
2013-01-11 00:22:00,70.0,66.0,30.24,East,87,3.0,8.0,87,0.00,,,0.00,,2013-01-11 05:22:00,
2013-01-11 00:33:00,70.0,66.0,30.24,ENE,69,5.0,8.0,87,0.00,,,0.00,,2013-01-11 05:33:00,
2013-01-11 00:43:00,70.0,66.0,30.24,ENE,69,5.0,8.0,87,0.00,,,0.00,,2013-01-11 05:43:00,
2013-01-11 00:53:00,70.0,66.0,30.24,East,97,3.0,8.0,88,0.00,,,0.00,,2013-01-11 05:53:00,
2013-01-11 01:03:00,70.0,66.0,30.24,East,80,3.0,8.0,87,0.00,,,0.00,,2013-01-11 06:03:00,
2013-01-11 01:12:00,70.0,66.0,30.24,East,80,3.0,8.0,87,0.00,,,0.00,,2013-01-11 06:12:00,
2013-01-11 01:22:00,70.0,66.0,30.23,ESE,107,4.0,7.0,87,0.00,,,0.00,,2013-01-11 06:22:00,
2013-01-11 01:32:00,70.0,66.0,30.22,East,90,3.0,9.0,87,0.00,,,0.00,,2013-01-11 06:32:00,
2013-01-11 01:42:00,70.0,66.0,30.22,East,90,3.0,9.0,87,0.00,,,0.00,,2013-01-11 06:42:00,
2013-01-11 01:52:00,70.0,66.0,30.22,ESE,102,3.0,8.0,88,0.00,,,0.00,,2013-01-11 06:52:00,
2013-01-11 02:02:00,69.0,65.0,30.22,East,84,4.0,8.0,88,0.00,,,0.00,,2013-01-11 07:02:00,
2013-01-11 02:12:00,69.0,66.0,30.21,NE,56,5.0,10.0,89,0.00,,,0.00,,2013-01-11 07:12:00,
2013-01-11 02:22:00,69.0,66.0,30.21,NE,56,5.0,10.0,89,0.00,,,0.00,,2013-01-11 07:22:00,
2013-01-11 02:32:00,69.0,66.0,30.21,East,95,5.0,10.0,89,0.00,,,0.00,,2013-01-11 07:32:00,
2013-01-11 02:42:00,69.0,65.0,30.21,East,98,4.0,12.0,88,0.00,,,0.00,,2013-01-11 07:42:00,
2013-01-11 02:52:00,69.0,65.0,30.21,East,98,4.0,12.0,88,0.00,,,0.00,,2013-01-11 07:52:00,
2013-01-11 03:02:00,70.0,66.0,30.20,ESE,105,4.0,10.0,88,0.00,,,0.00,,2013-01-11 08:02:00,
2013-01-11 03:12:00,69.0,66.0,30.19,ESE,108,4.0,10.0,89,0.00,,,0.00,,2013-01-11 08:12:00,
2013-01-11 03:22:00,69.0,66.0,30.19,ESE,108,4.0,10.0,89,0.00,,,0.00,,2013-01-11 08:22:00,
2013-01-11 03:32:00,69.0,66.0,30.19,East,95,4.0,8.0,89,0.00,,,0.00,,2013-01-11 08:32:00,
2013-01-11 03:42:00,69.0,66.0,30.19,East,95,4.0,8.0,89,0.00,,,0.00,,2013-01-11 08:42:00,
2013-01-11 03:53:00,69.0,66.0,30.19,East,82,4.0,9.0,89,0.00,,,0.00,,2013-01-11 08:53:00,
2013-01-11 04:02:00,69.0,66.0,30.19,East,83,4.0,9.0,89,0.00,,,0.00,,2013-01-11 09:02:00,
2013-01-11 04:12:00,69.0,66.0,30.19,East,83,4.0,9.0,89,0.00,,,0.00,,2013-01-11 09:12:00,
2013-01-11 04:23:00,69.0,66.0,30.18,ENE,75,2.0,9.0,89,0.00,,,0.00,,2013-01-11 09:23:00,
2013-01-11 04:32:00,69.0,66.0,30.19,ENE,76,3.0,7.0,90,0.00,,,0.00,,2013-01-11 09:32:00,
2013-01-11 04:42:00,69.0,66.0,30.19,ENE,76,3.0,7.0,90,0.00,,,0.00,,2013-01-11 09:42:00,
2013-01-11 04:52:00,69.0,66.0,30.18,ENE,74,1.0,7.0,90,0.00,,,0.00,,2013-01-11 09:52:00,
2013-01-11 05:02:00,69.0,66.0,30.18,East,79,2.0,3.0,90,0.00,,,0.00,,2013-01-11 10:02:00,
2013-01-11 05:12:00,69.0,66.0,30.18,East,79,2.0,3.0,90,0.00,,,0.00,,2013-01-11 10:12:00,
2013-01-11 05:22:00,68.0,65.0,30.17,East,79,2.0,5.0,91,0.00,,,0.00,,2013-01-11 10:22:00,
2013-01-11 05:32:00,68.0,65.0,30.17,East,80,3.0,8.0,91,0.00,,,0.00,,2013-01-11 10:32:00,
2013-01-11 05:42:00,68.0,65.0,30.17,East,80,3.0,8.0,91,0.00,,,0.00,,2013-01-11 10:42:00,
2013-01-11 05:53:00,68.0,65.0,30.17,East,86,2.0,6.0,91,0.00,,,0.00,,2013-01-11 10:53:00,
2013-01-11 06:03:00,68.0,65.0,30.17,East,92,2.0,7.0,91,0.00,,,0.00,,2013-01-11 11:03:00,
2013-01-11 06:12:00,68.0,65.0,30.17,East,92,2.0,7.0,91,0.00,,,0.00,,2013-01-11 11:12:00,
2013-01-11 06:22:00,68.0,65.0,30.17,SE,124,3.0,6.0,91,0.00,,,0.00,,2013-01-11 11:22:00,
2013-01-11 06:33:00,68.0,66.0,30.17,East,94,4.0,9.0,92,0.00,,,0.00,,2013-01-11 11:33:00,
2013-01-11 06:42:00,68.0,66.0,30.17,East,94,4.0,9.0,92,0.00,,,0.00,,2013-01-11 11:42:00,
2013-01-11 06:53:00,68.0,66.0,30.17,East,99,3.0,6.0,92,0.00,,,0.00,,2013-01-11 11:53:00,
2013-01-11 07:03:00,68.0,66.0,30.17,East,90,4.0,8.0,93,0.00,,,0.00,,2013-01-11 12:03:00,
2013-01-11 07:12:00,68.0,66.0,30.17,East,90,4.0,8.0,93,0.00,,,0.00,,2013-01-11 12:12:00,
2013-01-11 07:22:00,68.0,66.0,30.18,ENE,76,2.0,7.0,93,0.00,,,0.00,,2013-01-11 12:22:00,
2013-01-11 07:33:00,68.0,66.0,30.18,East,96,2.0,6.0,92,0.00,,,0.00,,2013-01-11 12:33:00,
2013-01-11 07:42:00,68.0,66.0,30.18,East,96,2.0,6.0,92,0.00,,,0.00,,2013-01-11 12:42:00,
2013-01-11 07:53:00,68.0,66.0,30.18,East,85,2.0,7.0,93,0.00,,,0.00,,2013-01-11 12:53:00,
2013-01-11 08:03:00,68.0,66.0,30.18,East,82,2.0,7.0,93,0.00,,,0.00,,2013-01-11 13:03:00,
2013-01-11 08:13:00,68.0,66.0,30.18,East,82,2.0,7.0,93,0.00,,,0.00,,2013-01-11 13:13:00,
2013-01-11 08:22:00,68.0,66.0,30.19,ENE,60,2.0,6.0,93,0.00,,,0.00,,2013-01-11 13:22:00,
2013-01-11 08:33:00,68.0,66.0,30.19,ENE,68,2.0,6.0,94,0.00,,,0.00,,2013-01-11 13:33:00,
2013-01-11 08:42:00,68.0,66.0,30.19,ENE,68,2.0,6.0,94,0.00,,,0.00,,2013-01-11 13:42:00,
2013-01-11 08:53:00,69.0,67.0,30.20,ENE,69,2.0,6.0,93,0.00,,,0.00,,2013-01-11 13:53:00,
2013-01-11 09:03:00,69.0,67.0,30.21,East,100,2.0,5.0,92,0.00,,,0.00,,2013-01-11 14:03:00,
2013-01-11 09:12:00,69.0,67.0,30.21,East,100,2.0,5.0,92,0.00,,,0.00,,2013-01-11 14:12:00,
2013-01-11 09:23:00,70.0,67.0,30.22,ESE,116,1.0,6.0,89,0.00,,,0.00,,2013-01-11 14:23:00,
2013-01-11 09:33:00,71.0,68.0,30.22,NNE,30,2.0,5.0,89,0.00,,,0.00,,2013-01-11 14:33:00,
2013-01-11 09:43:00,72.0,68.0,30.22,NE,35,2.0,7.0,88,0.00,,,0.00,,2013-01-11 14:43:00,
2013-01-11 09:53:00,72.0,68.0,30.22,NE,35,2.0,7.0,88,0.00,,,0.00,,2013-01-11 14:53:00,
2013-01-11 10:03:00,73.0,69.0,30.22,NNE,31,3.0,9.0,86,0.00,,,0.00,,2013-01-11 15:03:00,
2013-01-11 10:13:00,74.0,69.0,30.22,East,98,3.0,9.0,84,0.00,,,0.00,,2013-01-11 15:13:00,
2013-01-11 10:23:00,74.0,69.0,30.22,East,98,3.0,9.0,84,0.00,,,0.00,,2013-01-11 15:23:00,
2013-01-11 10:33:00,75.0,69.0,30.22,ESE,108,3.0,8.0,82,0.00,,,0.00,,2013-01-11 15:33:00,
2013-01-11 10:43:00,75.0,69.0,30.22,ESE,108,3.0,8.0,82,0.00,,,0.00,,2013-01-11 15:43:00,
2013-01-11 10:53:00,75.0,68.0,30.22,East,79,5.0,10.0,80,0.00,,,0.00,,2013-01-11 15:53:00,
2013-01-11 11:03:00,76.0,69.0,30.22,East,85,5.0,10.0,80,0.00,,,0.00,,2013-01-11 16:03:00,
2013-01-11 11:12:00,78.0,69.0,30.21,SE,133,5.0,10.0,73,0.00,,,0.00,,2013-01-11 16:12:00,
2013-01-11 11:23:00,78.0,69.0,30.21,SE,133,5.0,10.0,73,0.00,,,0.00,,2013-01-11 16:23:00,
2013-01-11 11:33:00,78.0,69.0,30.21,ESE,102,4.0,9.0,74,0.00,,,0.00,,2013-01-11 16:33:00,
2013-01-11 11:43:00,78.0,69.0,30.21,ESE,102,4.0,9.0,74,0.00,,,0.00,,2013-01-11 16:43:00,
2013-01-11 11:53:00,79.0,69.0,30.20,ESE,108,4.0,10.0,72,0.00,,,0.00,,2013-01-11 16:53:00,
2013-01-11 12:03:00,79.0,69.0,30.20,ESE,123,4.0,9.0,72,0.00,,,0.00,,2013-01-11 17:03:00,
2013-01-11 12:12:00,79.0,68.0,30.20,ESE,116,5.0,10.0,69,0.00,,,0.00,,2013-01-11 17:12:00,
2013-01-11 12:22:00,79.0,68.0,30.20,ESE,116,5.0,10.0,69,0.00,,,0.00,,2013-01-11 17:22:00,
2013-01-11 12:33:00,80.0,68.0,30.19,ESE,121,5.0,10.0,67,0.00,,,0.00,,2013-01-11 17:33:00,
2013-01-11 12:43:00,80.0,68.0,30.19,ESE,121,5.0,10.0,67,0.00,,,0.00,,2013-01-11 17:43:00,
2013-01-11 12:53:00,80.0,68.0,30.19,SE,127,3.0,8.0,66,0.00,,,0.00,,2013-01-11 17:53:00,
2013-01-11 13:03:00,81.0,68.0,30.18,SE,146,2.0,8.0,65,0.00,,,0.00,,2013-01-11 18:03:00,
2013-01-11 13:13:00,81.0,68.0,30.18,SE,146,2.0,8.0,65,0.00,,,0.00,,2013-01-11 18:13:00,
2013-01-11 13:23:00,81.0,66.0,30.17,SE,137,3.0,8.0,60,0.00,,,0.00,,2013-01-11 18:23:00,
2013-01-11 13:33:00,81.0,64.0,30.16,SE,127,2.0,9.0,57,0.00,,,0.00,,2013-01-11 18:33:00,
2013-01-11 13:43:00,81.0,64.0,30.16,SE,127,2.0,9.0,57,0.00,,,0.00,,2013-01-11 18:43:00,
2013-01-11 13:53:00,81.0,65.0,30.16,SE,135,2.0,8.0,58,0.00,,,0.00,,2013-01-11 18:53:00,
2013-01-11 14:03:00,81.0,64.0,30.15,SE,136,1.0,6.0,57,0.00,,,0.00,,2013-01-11 19:03:00,
2013-01-11 14:12:00,81.0,64.0,30.15,SE,136,1.0,6.0,57,0.00,,,0.00,,2013-01-11 19:12:00,
2013-01-11 14:22:00,81.0,62.0,30.14,South,179,1.0,5.0,53,0.00,,,0.00,,2013-01-11 19:22:00,
2013-01-11 14:32:00,81.0,63.0,30.14,SSW,199,1.0,6.0,55,0.00,,,0.00,,2013-01-11 19:32:00,
2013-01-11 14:43:00,81.0,63.0,30.14,SSW,199,1.0,6.0,55,0.00,,,0.00,,2013-01-11 19:43:00,
2013-01-11 14:54:00,82.0,64.0,30.13,SE,143,2.0,6.0,55,0.00,,,0.00,,2013-01-11 19:54:00,
2013-01-11 15:03:00,82.0,65.0,30.12,SE,142,2.0,6.0,56,0.00,,,0.00,,2013-01-11 20:03:00,
2013-01-11 15:12:00,82.0,65.0,30.12,SE,142,2.0,6.0,56,0.00,,,0.00,,2013-01-11 20:12:00,
2013-01-11 15:22:00,81.0,65.0,30.11,SE,128,3.0,7.0,58,0.00,,,0.00,,2013-01-11 20:22:00,
2013-01-11 15:33:00,82.0,66.0,30.11,ESE,119,3.0,8.0,58,0.00,,,0.00,,2013-01-11 20:33:00,
2013-01-11 15:43:00,82.0,66.0,30.11,ESE,119,3.0,8.0,58,0.00,,,0.00,,2013-01-11 20:43:00,
2013-01-11 15:53:00,82.0,66.0,30.11,SSE,158,1.0,5.0,59,0.00,,,0.00,,2013-01-11 20:53:00,
2013-01-11 16:03:00,81.0,64.0,30.11,South,172,2.0,6.0,57,0.00,,,0.00,,2013-01-11 21:03:00,
2013-01-11 16:12:00,80.0,64.0,30.11,SSE,160,1.0,8.0,59,0.00,,,0.00,,2013-01-11 21:12:00,
2013-01-11 16:23:00,80.0,64.0,30.11,SSE,160,1.0,8.0,59,0.00,,,0.00,,2013-01-11 21:23:00,
2013-01-11 16:33:00,79.0,63.0,30.11,South,184,3.0,7.0,58,0.00,,,0.00,,2013-01-11 21:33:00,
2013-01-11 16:42:00,79.0,63.0,30.11,South,184,3.0,7.0,58,0.00,,,0.00,,2013-01-11 21:42:00,
2013-01-11 16:53:00,78.0,64.0,30.11,South,170,3.0,6.0,63,0.00,,,0.00,,2013-01-11 21:53:00,
2013-01-11 17:03:00,78.0,65.0,30.11,ESE,107,0.0,5.0,65,0.00,,,0.00,,2013-01-11 22:03:00,
2013-01-11 17:12:00,77.0,65.0,30.11,SSE,164,1.0,5.0,67,0.00,,,0.00,,2013-01-11 22:12:00,
2013-01-11 17:22:00,77.0,65.0,30.11,SSE,164,1.0,5.0,67,0.00,,,0.00,,2013-01-11 22:22:00,
2013-01-11 17:33:00,77.0,66.0,30.11,SSW,194,1.0,3.0,68,0.00,,,0.00,,2013-01-11 22:33:00,
2013-01-11 17:42:00,77.0,66.0,30.11,SSW,194,1.0,3.0,68,0.00,,,0.00,,2013-01-11 22:42:00,
2013-01-11 17:53:00,76.0,66.0,30.12,South,189,0.0,2.0,71,0.00,,,0.00,,2013-01-11 22:53:00,
2013-01-11 18:02:00,76.0,66.0,30.12,South,171,0.0,2.0,72,0.00,,,0.00,,2013-01-11 23:02:00,
2013-01-11 18:13:00,76.0,66.0,30.12,South,171,0.0,2.0,72,0.00,,,0.00,,2013-01-11 23:13:00,
2013-01-11 18:23:00,75.0,66.0,30.12,South,171,0.0,1.0,73,0.00,,,0.00,,2013-01-11 23:23:00,
2013-01-11 18:32:00,74.0,65.0,30.12,South,171,0.0,0.0,74,0.00,,,0.00,,2013-01-11 23:32:00,
2013-01-11 18:43:00,74.0,65.0,30.12,South,171,0.0,0.0,74,0.00,,,0.00,,2013-01-11 23:43:00,
2013-01-11 18:53:00,73.0,66.0,30.12,South,171,0.0,0.0,78,0.00,,,0.00,,2013-01-11 23:53:00,
2013-01-11 19:02:00,73.0,66.0,30.13,South,171,0.0,0.0,78,0.00,,,0.00,,2013-01-12 00:02:00,
2013-01-11 19:12:00,72.0,66.0,30.13,South,171,0.0,0.0,82,0.00,,,0.00,,2013-01-12 00:12:00,
2013-01-11 19:23:00,72.0,66.0,30.13,South,171,0.0,0.0,82,0.00,,,0.00,,2013-01-12 00:23:00,
2013-01-11 19:33:00,71.0,65.0,30.13,South,171,0.0,0.0,82,0.00,,,0.00,,2013-01-12 00:33:00,
2013-01-11 19:43:00,71.0,65.0,30.13,South,171,0.0,0.0,82,0.00,,,0.00,,2013-01-12 00:43:00,
2013-01-11 19:53:00,71.0,66.0,30.13,South,171,0.0,0.0,85,0.00,,,0.00,,2013-01-12 00:53:00,
2013-01-11 20:02:00,70.0,66.0,30.14,South,171,0.0,0.0,86,0.00,,,0.00,,2013-01-12 01:02:00,
2013-01-11 20:12:00,70.0,66.0,30.14,South,171,0.0,0.0,86,0.00,,,0.00,,2013-01-12 01:12:00,
2013-01-11 20:22:00,69.0,65.0,30.14,South,171,0.0,0.0,88,0.00,,,0.00,,2013-01-12 01:22:00,
2013-01-11 20:33:00,69.0,65.0,30.14,South,171,0.0,0.0,88,0.00,,,0.00,,2013-01-12 01:33:00,
2013-01-11 20:43:00,69.0,65.0,30.14,South,171,0.0,0.0,88,0.00,,,0.00,,2013-01-12 01:43:00,
2013-01-11 20:53:00,69.0,66.0,30.14,South,171,0.0,0.0,89,0.00,,,0.00,,2013-01-12 01:53:00,
2013-01-11 21:02:00,69.0,66.0,30.14,South,171,0.0,0.0,90,0.00,,,0.00,,2013-01-12 02:02:00,
2013-01-11 21:12:00,69.0,66.0,30.14,South,171,0.0,0.0,90,0.00,,,0.00,,2013-01-12 02:12:00,
2013-01-11 21:22:00,69.0,66.0,30.14,ESE,121,0.0,2.0,91,0.00,,,0.00,,2013-01-12 02:22:00,
2013-01-11 21:33:00,68.0,65.0,30.14,ESE,121,0.0,2.0,91,0.00,,,0.00,,2013-01-12 02:33:00,
2013-01-11 21:43:00,68.0,65.0,30.14,ESE,121,0.0,2.0,91,0.00,,,0.00,,2013-01-12 02:43:00,
2013-01-11 21:53:00,69.0,67.0,30.14,ESE,117,0.0,1.0,93,0.00,,,0.00,,2013-01-12 02:53:00,
2013-01-11 22:03:00,69.0,67.0,30.15,East,92,0.0,3.0,92,0.00,,,0.00,,2013-01-12 03:03:00,
2013-01-11 22:12:00,69.0,67.0,30.15,East,92,0.0,3.0,92,0.00,,,0.00,,2013-01-12 03:12:00,
2013-01-11 22:22:00,69.0,66.0,30.15,East,93,1.0,3.0,91,0.00,,,0.00,,2013-01-12 03:22:00,
2013-01-11 22:33:00,69.0,66.0,30.16,East,80,1.0,5.0,91,0.00,,,0.00,,2013-01-12 03:33:00,
2013-01-11 22:43:00,69.0,66.0,30.16,East,80,1.0,5.0,91,0.00,,,0.00,,2013-01-12 03:43:00,
2013-01-11 22:53:00,69.0,66.0,30.16,East,82,3.0,6.0,89,0.00,,,0.00,,2013-01-12 03:53:00,
2013-01-11 23:02:00,70.0,67.0,30.16,East,90,3.0,7.0,89,0.00,,,0.00,,2013-01-12 04:02:00,
2013-01-11 23:12:00,70.0,67.0,30.16,East,90,3.0,7.0,89,0.00,,,0.00,,2013-01-12 04:12:00,
2013-01-11 23:22:00,70.0,67.0,30.16,East,94,3.0,8.0,89,0.00,,,0.00,,2013-01-12 04:22:00,
2013-01-11 23:32:00,70.0,67.0,30.16,East,94,2.0,9.0,89,0.00,,,0.00,,2013-01-12 04:32:00,
2013-01-11 23:42:00,70.0,67.0,30.16,East,94,2.0,9.0,89,0.00,,,0.00,,2013-01-12 04:42:00,
2013-01-11 23:52:00,70.0,67.0,30.15,East,98,3.0,8.0,89,0.00,,,0.00,,2013-01-12 04:52:00,